sat.trackr.live / text

‹ back to catalog

STARLINK-34150

NORAD 63998 · 2025-101E

PAYLOAD ACTIVE UNKNOWN

§ Identity

Operator
Country
US
Launch date
2025-05-14
Launch site
AFETR
Launch vehicle
Mass (kg)
RCS (m²)

Purposes: comms

External: N2YO · Heavens-Above · Gunter

§ Orbital elements

Epoch: 2026-09-19T12:01:42.681216Z

Period
94.27 min
Inclination
43.0018°
Eccentricity
0.0001571
Mean motion
15.27585782 rev/d
Perigee alt
482.0 km
Apogee alt
484.1 km
Semi-major
6,861.2 km
B*
2.6345e-4
RAAN
343.6396°
Arg perigee
274.4098°
Mean anomaly
85.6574°
Rev number
7,669

§ Raw data

STARLINK-341501 63998U 25101E   26262.50118844  .00006995  00000+0  26345-3 0  99942 63998  43.0018 343.6396 0001571 274.4098  85.6574 15.27585782 76698

JSON: /api/v1/satellites/63998 · /tle

For live sub-satellite position, see the globe view (requires WebGL).

§ Visibility from observer

Set your observer location to see the next 7 days of passes ≥ 10°. The values pass through the URL so the page stays shareable.

No JS? Fill the form by hand. The geolocation button needs JavaScript.